GW1031 Weather Reports


Display with metric or nautical units.
time (UTC)temp
F
wind
direction
speed
MPH
gust
MPH
rain 1hr
in
rain 24hr
in
rain mn
in
humidity
%
barometer
mb
20260505124909 37 191 0.0 0.0 0.00 0.00 0.00 82 1012.9
20260505124407 37 189 0.0 0.0 0.00 0.00 0.00 82 1013.1
20260505123902 38 177 0.0 0.0 0.00 0.00 0.00 82 1012.9
20260505123359 38 153 0.0 0.0 0.00 0.00 0.00 81 1012.9
20260505122855 37 136 0.0 0.0 0.00 0.00 0.00 82 1012.8
20260505122353 38 136 0.0 0.0 0.00 0.00 0.00 82 1013.0
20260505121849 38 136 0.0 0.0 0.00 0.00 0.00 82 1012.8
20260505121346 38 128 0.0 0.0 0.00 0.00 0.00 81 1012.8
20260505120842 38 133 0.0 0.0 0.00 0.00 0.00 82 1012.8
20260505120338 38 191 0.0 0.0 0.00 0.00 0.00 80 1012.6
20260505115837 38 191 0.0 0.0 0.00 0.00 0.00 80 1012.9
20260505115334 38 191 0.0 0.0 0.00 0.00 0.00 80 1013.1
20260505114832 38 113 0.0 0.0 0.00 0.00 0.00 80 1013.1
20260505114328 38 72 0.0 0.0 0.00 0.00 0.00 82 1013.1
20260505113825 39 109 0.0 0.0 0.00 0.00 0.00 80 1012.8
20260505113321 39 219 0.0 0.0 0.00 0.00 0.00 78 1012.8
20260505112817 38 219 0.0 0.0 0.00 0.00 0.00 78 1012.8
20260505112315 38 225 0.0 0.0 0.00 0.00 0.00 80 1012.6
20260505111810 38 168 0.0 0.0 0.00 0.00 0.00 80 1012.9
20260505111306 38 172 0.0 0.0 0.00 0.00 0.00 81 1012.6
20260505110802 38 169 0.0 0.0 0.00 0.00 0.00 81 1012.8
20260505110300 39 122 0.0 0.0 0.00 0.00 0.00 81 1012.5
20260505101734 39 120 0.0 0.0 0.00 0.00 0.00 81 1012.4
20260505101230 40 127 0.0 0.0 0.00 0.00 0.00 82 1012.5
20260505100726 40 178 0.0 0.0 0.00 0.00 0.00 76 1012.5
20260505100223 39 202 0.0 0.0 0.00 0.00 0.00 77 1012.5
20260505095718 39 193 0.0 0.0 0.00 0.00 0.00 80 1012.1
20260505095217 39 118 0.0 0.0 0.00 0.00 0.00 79 1012.0
20260505094712 39 107 0.0 0.0 0.00 0.00 0.00 81 1012.3
20260505094208 40 106 0.0 0.0 0.00 0.00 0.00 83 1012.3
20260505093705 41 196 0.0 0.0 0.00 0.00 0.00 72 1012.3
20260505093202 41 223 0.0 0.0 0.00 0.00 0.00 74 1012.3
20260505092654 40 233 0.0 0.0 0.00 0.00 0.00 75 1012.4
20260505092152 40 201 0.0 0.0 0.00 0.00 0.00 76 1012.3
20260505091649 40 117 0.0 0.0 0.00 0.00 0.00 77 1012.6
20260505091147 40 75 0.0 0.0 0.00 0.00 0.00 79 1012.0
20260505090644 42 98 2.0 2.0 0.00 0.00 0.00 80 1012.3
20260505090143 41 203 0.0 0.0 0.00 0.00 0.00 70 1012.3
20260505085639 41 199 0.0 0.0 0.00 0.00 0.00 74 1012.3
20260505085138 41 134 0.0 0.0 0.00 0.00 0.00 75 1012.4
20260505084635 41 286 0.0 0.0 0.00 0.00 0.00 76 1012.4
20260505084133 41 144 0.0 0.0 0.00 0.00 0.00 73 1012.6
20260505083630 41 230 0.0 1.0 0.00 0.00 0.00 76 1012.5
20260505083127 41 129 0.0 0.0 0.00 0.00 0.00 76 1012.4
20260505082623 42 129 0.0 0.0 0.00 0.00 0.00 74 1012.8
20260505082120 42 105 0.0 1.0 0.00 0.00 0.00 73 1012.5
20260505081616 42 206 0.0 0.0 0.00 0.00 0.00 72 1012.8
20260505081114 42 207 0.0 0.0 0.00 0.00 0.00 72 1012.6
20260505080610 42 147 0.0 0.0 0.00 0.00 0.00 72 1012.8
20260505080106 42 118 0.0 0.0 0.00 0.00 0.00 72 1012.8
20260505075602 43 95 0.0 0.0 0.00 0.00 0.00 77 1012.9
20260505075059 43 123 0.0 0.0 0.00 0.00 0.00 74 1012.5
20260505074556 44 197 0.0 0.0 0.00 0.00 0.00 67 1012.6
20260505074053 44 209 0.0 0.0 0.00 0.00 0.00 67 1012.8
20260505073551 43 212 0.0 0.0 0.00 0.00 0.00 66 1012.9
20260505073049 43 149 0.0 0.0 0.00 0.00 0.00 70 1013.0
20260505072544 44 148 0.0 0.0 0.00 0.00 0.00 70 1013.1
20260505072041 44 97 0.0 0.0 0.00 0.00 0.00 74 1012.8
20260505071536 45 198 0.0 0.0 0.00 0.00 0.00 62 1012.9
20260505071035 45 215 0.0 0.0 0.00 0.00 0.00 65 1012.6
20260505070532 45 204 0.0 0.0 0.00 0.00 0.00 65 1012.8
20260505070028 44 192 0.0 0.0 0.00 0.00 0.00 68 1012.6
20260505065524 44 155 0.0 0.0 0.00 0.00 0.00 70 1012.8
20260505065020 44 165 0.0 0.0 0.00 0.00 0.00 70 1012.6
20260505064517 45 151 0.0 0.0 0.00 0.00 0.00 70 1012.6
20260505064016 45 134 0.0 1.0 0.00 0.00 0.00 65 1012.9
20260505063513 45 149 0.0 0.0 0.00 0.00 0.00 66 1012.5
20260505063008 46 118 0.0 0.0 0.00 0.00 0.00 67 1012.6
20260505062505 46 201 0.0 0.0 0.00 0.00 0.00 65 1012.8
20260505062003 46 175 0.0 1.0 0.00 0.00 0.00 63 1012.8
20260505061500 46 267 0.0 0.0 0.00 0.00 0.00 65 1012.4
20260505060957 46 145 0.0 1.0 0.00 0.00 0.00 64 1012.6
20260505060455 45 253 0.0 1.0 0.00 0.00 0.00 65 1012.8
20260505055951 46 137 0.0 0.0 0.00 0.03 0.03 67 1012.6
20260505055447 46 112 0.0 0.0 0.00 0.03 0.03 68 1012.8
20260505054944 45 157 0.0 0.0 0.00 0.03 0.03 70 1012.4
20260505054441 46 164 0.0 0.0 0.00 0.03 0.03 67 1012.4
20260505053939 46 164 0.0 0.0 0.00 0.03 0.03 65 1012.5
20260505053436 47 147 0.0 0.0 0.00 0.03 0.03 68 1012.4
20260505052932 47 152 0.0 0.0 0.00 0.03 0.03 64 1012.5
20260505052429 47 143 0.0 0.0 0.00 0.03 0.03 62 1012.5
20260505051927 47 174 0.0 0.0 0.00 0.03 0.03 62 1012.3
20260505051424 48 134 0.0 0.0 0.00 0.03 0.03 66 1012.1
20260505050922 48 118 0.0 1.0 0.00 0.03 0.03 65 1012.3
20260505050420 48 141 0.0 0.0 0.00 0.03 0.03 58 1012.6
20260505041347 50 150 0.0 0.0 0.00 0.03 0.03 51 1012.6
20260505040844 50 156 0.0 0.0 0.00 0.03 0.03 52 1012.5
20260505040342 50 225 0.0 0.0 0.00 0.03 0.03 48 1012.5
20260505035839 49 217 0.0 0.0 0.00 0.03 0.03 50 1012.6
20260505035334 49 218 0.0 0.0 0.00 0.03 0.03 52 1012.3
20260505034832 48 189 0.0 0.0 0.00 0.03 0.03 54 1012.4
20260505034328 48 189 0.0 0.0 0.00 0.03 0.03 54 1012.4
20260505033826 49 189 0.0 0.0 0.00 0.03 0.03 58 1012.4
20260505033322 49 189 0.0 0.0 0.00 0.03 0.03 60 1012.3
20260505032821 49 191 0.0 0.0 0.00 0.03 0.03 56 1012.1
20260505032316 50 135 0.0 0.0 0.00 0.03 0.03 56 1012.0
20260505031814 50 121 0.0 0.0 0.00 0.03 0.03 61 1011.9
20260505031310 50 181 0.0 0.0 0.00 0.03 0.03 56 1012.0
20260505030808 50 175 0.0 0.0 0.00 0.03 0.03 61 1011.9
20260505030304 50 106 0.0 0.0 0.00 0.03 0.03 60 1011.9
20260505025759 50 128 0.0 0.0 0.00 0.03 0.03 57 1011.9
20260505025257 51 128 0.0 0.0 0.00 0.03 0.03 56 1012.0
20260505024755 51 128 0.0 0.0 0.00 0.03 0.03 57 1011.8
20260505024252 52 127 0.0 0.0 0.00 0.03 0.03 54 1011.8
20260505023749 52 159 0.0 0.0 0.00 0.03 0.03 53 1011.7
20260505023246 53 120 0.0 0.0 0.00 0.03 0.03 55 1011.5
20260505022744 54 187 0.0 0.0 0.00 0.03 0.03 43 1011.7
20260505022241 55 188 0.0 0.0 0.00 0.03 0.03 42 1011.5
20260505021737 55 224 0.0 1.0 0.00 0.03 0.03 39 1011.3
20260505021235 56 198 0.0 0.0 0.00 0.03 0.03 38 1011.8
20260505020730 56 194 0.0 0.0 0.00 0.03 0.03 38 1011.4
20260505020225 57 194 0.0 0.0 0.00 0.03 0.03 37 1011.7
20260505015723 57 194 0.0 0.0 0.00 0.03 0.03 36 1011.0
20260505015220 57 195 0.0 0.0 0.00 0.03 0.03 35 1011.4
20260505014717 58 178 0.0 0.0 0.00 0.03 0.03 35 1011.7
20260505014214 58 162 0.0 0.0 0.00 0.03 0.03 32 1011.8
20260505013711 58 161 0.0 0.0 0.00 0.03 0.03 34 1011.5
20260505013208 59 212 0.0 0.0 0.00 0.03 0.03 33 1011.3
20260505012706 60 220 0.0 0.0 0.00 0.03 0.03 32 1011.4
20260505012203 60 232 0.0 0.0 0.00 0.03 0.03 31 1011.4
20260505011659 61 181 0.0 1.0 0.00 0.03 0.03 27 1011.5
20260505011156 61 195 0.0 0.0 0.00 0.03 0.03 27 1011.7
20260505010651 62 209 0.0 0.0 0.00 0.03 0.03 28 1011.4
20260505010149 62 218 1.0 1.0 0.00 0.03 0.03 27 1011.5
20260505005644 63 129 0.0 0.0 0.00 0.03 0.03 27 1011.7
20260505005142 63 185 1.0 1.0 0.00 0.03 0.03 24 1011.4
20260505004639 63 227 2.0 3.0 0.00 0.03 0.03 23 1011.4
20260505004135 64 149 0.0 0.0 0.00 0.03 0.03 28 1011.0
20260505003632 64 172 0.0 0.0 0.00 0.03 0.03 24 1011.5
20260505003130 64 106 0.0 0.0 0.00 0.03 0.03 25 1011.7
20260505002626 64 178 1.0 1.0 0.00 0.03 0.03 24 1011.8
20260505002124 65 275 1.0 2.0 0.00 0.03 0.03 25 1011.7
20260505001621 65 220 0.0 0.0 0.00 0.03 0.03 27 1012.0
20260505001119 65 151 0.0 1.0 0.00 0.03 0.03 27 1011.7
20260505000615 65 203 0.0 0.0 0.00 0.03 0.03 28 1011.9
20260505000114 65 130 0.0 0.0 0.00 0.03 0.03 27 1012.1
20260504235609 65 221 0.0 1.0 0.00 0.03 0.03 25 1012.0
20260504235106 65 247 0.0 1.0 0.00 0.03 0.03 25 1011.9
20260504234603 65 148 1.0 2.0 0.00 0.03 0.03 25 1012.1
20260504234100 66 238 1.0 1.0 0.00 0.03 0.03 24 1012.0
20260504233555 66 199 2.0 3.0 0.00 0.03 0.03 25 1012.0
20260504233052 67 229 1.0 1.0 0.00 0.03 0.03 24 1012.1
20260504232550 67 190 1.0 1.0 0.00 0.03 0.03 24 1012.4
20260504232047 65 276 1.0 1.0 0.00 0.03 0.03 25 1012.1
20260504231543 66 283 1.0 1.0 0.00 0.03 0.03 25 1012.0
20260504231040 65 277 3.0 5.0 0.00 0.03 0.03 24 1011.9
20260504230536 66 219 4.0 6.0 0.00 0.03 0.03 24 1012.1
20260504230035 66 223 0.0 1.0 0.00 0.03 0.03 24 1012.0
20260504225532 66 224 1.0 2.0 0.00 0.03 0.03 24 1012.0
20260504225029 66 256 0.0 1.0 0.00 0.03 0.03 28 1011.8
20260504224525 66 168 3.0 5.0 0.00 0.03 0.03 28 1012.0
20260504224023 66 249 3.0 5.0 0.00 0.03 0.03 26 1011.8
20260504223519 66 191 3.0 6.0 0.00 0.03 0.03 27 1011.9
20260504223015 67 128 4.0 6.0 0.00 0.03 0.03 25 1011.9
20260504222512 67 99 1.0 1.0 0.00 0.03 0.03 26 1011.9
20260504222010 67 269 1.0 2.0 0.00 0.03 0.03 27 1011.9
20260504221507 67 142 2.0 3.0 0.00 0.03 0.03 28 1012.0
20260504221004 67 188 2.0 2.0 0.00 0.03 0.03 28 1011.9
20260504220500 68 117 0.0 1.0 0.00 0.03 0.03 28 1011.9
20260504215957 68 242 1.0 2.0 0.00 0.03 0.03 26 1011.9
20260504215453 68 47 2.0 2.0 0.00 0.03 0.03 29 1011.9
20260504214950 68 209 1.0 2.0 0.00 0.03 0.03 30 1012.1
20260504214446 68 212 1.0 2.0 0.00 0.03 0.03 30 1012.3
20260504213943 68 168 1.0 2.0 0.00 0.03 0.03 28 1012.3
20260504213439 68 214 1.0 1.0 0.00 0.03 0.03 28 1012.4
20260504212937 68 187 3.0 3.0 0.00 0.03 0.03 30 1012.8
20260504212432 67 85 1.0 1.0 0.00 0.03 0.03 35 1012.5
20260504211931 66 277 1.0 1.0 0.00 0.03 0.03 32 1012.4
20260504211426 68 279 3.0 5.0 0.00 0.03 0.03 29 1013.0
20260504210924 70 181 0.0 0.0 0.00 0.03 0.03 31 1012.6
20260504210421 70 99 2.0 2.0 0.00 0.03 0.03 34 1012.9
20260504205918 68 173 2.0 3.0 0.00 0.03 0.03 30 1012.9
20260504205416 67 337 2.0 3.0 0.00 0.03 0.03 34 1012.9
20260504204914 67 25 1.0 1.0 0.00 0.03 0.03 32 1013.2
20260504204412 67 241 2.0 2.0 0.00 0.03 0.03 34 1013.4
20260504203911 68 187 1.0 2.0 0.00 0.03 0.03 35 1013.2
20260504203408 68 236 1.0 2.0 0.00 0.03 0.03 33 1013.2
20260504202903 67 299 1.0 1.0 0.00 0.03 0.03 33 1013.2
20260504202401 67 183 2.0 3.0 0.00 0.03 0.03 33 1013.6
20260504201857 68 258 2.0 3.0 0.00 0.03 0.03 34 1013.6
20260504201355 66 73 1.0 1.0 0.00 0.03 0.03 34 1013.5
20260504200852 65 237 5.0 5.0 0.00 0.03 0.03 35 1013.5
20260504200348 67 289 2.0 2.0 0.00 0.03 0.03 34 1013.6
20260504195845 67 114 1.0 2.0 0.00 0.03 0.03 34 1013.8
20260504195340 66 177 1.0 2.0 0.00 0.03 0.03 33 1013.6
20260504194838 66 4 2.0 2.0 0.00 0.03 0.03 33 1013.5
20260504194333 67 175 2.0 2.0 0.00 0.03 0.03 35 1013.6
20260504193829 66 100 3.0 3.0 0.00 0.03 0.03 35 1013.6
20260504193327 66 65 1.0 1.0 0.00 0.03 0.03 37 1013.6
20260504192826 66 182 3.0 3.0 0.00 0.03 0.03 34 1013.8
20260504192323 66 194 1.0 1.0 0.00 0.03 0.03 34 1013.8
20260504191822 67 143 0.0 1.0 0.00 0.03 0.03 36 1013.8
20260504191319 67 295 1.0 2.0 0.00 0.03 0.03 37 1013.7
20260504190814 65 116 1.0 2.0 0.00 0.03 0.03 37 1013.8
20260504190310 65 109 1.0 1.0 0.00 0.03 0.03 38 1013.8
20260504185807 65 258 3.0 3.0 0.00 0.03 0.03 37 1014.2
20260504185305 65 171 3.0 5.0 0.00 0.03 0.03 38 1014.3
20260504184800 66 242 2.0 2.0 0.00 0.03 0.03 39 1014.1
20260504184256 66 264 3.0 5.0 0.00 0.03 0.03 40 1014.1
20260504183752 65 263 2.0 2.0 0.00 0.03 0.03 39 1014.0
20260504183249 64 118 1.0 2.0 0.00 0.03 0.03 40 1014.3
20260504182747 64 124 3.0 3.0 0.00 0.03 0.03 39 1014.5
20260504182244 65 238 1.0 1.0 0.00 0.03 0.03 40 1014.1
20260504181742 65 256 2.0 2.0 0.00 0.03 0.03 42 1014.5
20260504181239 64 240 1.0 2.0 0.00 0.03 0.03 41 1014.7
20260504180738 64 132 1.0 2.0 0.00 0.03 0.03 41 1014.9
20260504180236 64 255 2.0 3.0 0.00 0.03 0.03 42 1014.8
20260504175733 64 110 0.0 0.0 0.00 0.03 0.03 46 1014.6
20260504175230 63 151 0.0 1.0 0.00 0.03 0.03 43 1014.8
20260504174728 63 313 1.0 2.0 0.00 0.03 0.03 45 1014.7
20260504174226 64 294 3.0 3.0 0.00 0.03 0.03 41 1014.7
20260504173722 63 141 1.0 1.0 0.00 0.03 0.03 42 1014.7
20260504173219 62 328 2.0 2.0 0.00 0.03 0.03 44 1014.8
20260504172715 63 170 2.0 2.0 0.00 0.03 0.03 42 1015.1
20260504172212 63 261 1.0 1.0 0.00 0.03 0.03 44 1014.9
20260504171709 62 260 2.0 2.0 0.00 0.03 0.03 44 1014.9
20260504171206 60 86 1.0 2.0 0.00 0.03 0.03 50 1014.9
20260504170702 60 125 3.0 3.0 0.00 0.03 0.03 50 1014.9
20260504170200 60 137 0.0 0.0 0.00 0.03 0.03 55 1014.9
20260504160118 55 93 0.0 1.0 0.00 0.03 0.03 67 1015.7
20260504151045 52 136 0.0 0.0 0.00 0.03 0.03 71 1016.0
20260504150543 53 115 0.0 1.0 0.00 0.03 0.03 73 1016.3
20260504141008 49 128 0.0 0.0 0.00 0.03 0.03 84 1016.5
20260504140505 48 123 0.0 0.0 0.00 0.03 0.03 85 1016.5